Home > Weather > Liepāja > Past weeks

Flag for Latvia Past Weather in Liepāja, Latvia — Yesterday and Last 2 Weeks

Now
66 °F

Mild.


Feels Like: 66 °F
Forecast: 63 / 68 °F
Wind: 10 mph from Southeast

Location: Liepaja International Airport

Current Time: Aug 29, 2016 at 1:43:21 AM

Latest Report: Aug 29, 2016 at 1:20 AM


Visibility: N/A

Pressure: 29.86 "Hg

Humidity: 64%

Dew Point: 54 °F

Location of LiepājaLocation

Past Weather in Liepāja — Graph

°F

Liepāja Temperature Yesterday

Maximum temperature yesterday: 73 °F (at 2:50 PM)
Minimum temperature yesterday: 50 °F (at 3:20 AM)
Average temperature yesterday: 62 °F

High & Low Weather Summary for the Past Weeks

 TemperatureHumidityPressure
High75 °F (Aug 20, 1:20 PM)100% (Aug 15, 2:50 AM)30.30 "Hg (Aug 15, 2:50 AM)
Low45 °F (Aug 15, 5:50 AM)47% (Aug 28, 1:20 PM)29.65 "Hg (Aug 17, 7:50 PM)
Average62 °F85%30.00 "Hg
* Reported Aug 14 12:20 AM — Aug 29 12:20 AM, Liepāja, Weather by CustomWeather, © 2016

Note: Actual official high and low records may vary slightly from our data, if they occured in-between our weather recording intervals... More about our weather records

Advertising

Liepāja Weather History for the Previous 24 Hours

Scroll right to see more
 ConditionsComfort  
Time TempWeatherWind HumidityBarometerVisibility
12:20 AM
Mon, Aug 29
66 °FMild.9 mph64%29.89 "HgN/A
11:50 PM
Sun, Aug 28
64 °FPassing clouds.8 mph68%29.89 "HgN/A
11:20 PM64 °FPassing clouds.7 mph73%29.92 "Hg2 mi
10:50 PM66 °FOvercast.7 mph68%29.92 "Hg1 mi
10:20 PM66 °FMostly cloudy.9 mph68%29.95 "Hg3 mi
9:50 PM66 °FOvercast.10 mph64%29.95 "Hg4 mi
9:20 PM66 °FMostly cloudy.9 mph68%29.95 "Hg5 mi
8:50 PM66 °FOvercast.10 mph64%29.98 "Hg1 mi
8:20 PM64 °FOvercast.7 mph73%30.04 "HgN/A
7:50 PM66 °FMostly cloudy.8 mph73%30.01 "HgN/A
7:20 PM68 °FPartly sunny.5 mph73%29.98 "HgN/A
6:50 PM70 °FPartly sunny.5 mph69%29.98 "HgN/A
6:20 PM70 °FOvercast.2 mph69%30.01 "HgN/A
5:50 PM70 °FBroken clouds.3 mph64%30.01 "Hg1 mi
5:20 PM70 °FPartly sunny.3 mph64%30.01 "Hg6 mi
4:50 PM70 °FMostly cloudy.2 mph64%30.04 "HgN/A
4:20 PM72 °FOvercast.2 mph57%30.04 "Hg4 mi
3:50 PM72 °FPartly sunny.3 mph57%30.04 "Hg1 mi
3:20 PM72 °FPartly sunny.5 mph50%30.07 "HgN/A
2:50 PM73 °FMild.6 mph47%30.07 "Hg4 mi
2:20 PM72 °FPassing clouds.9 mph53%30.07 "HgN/A
1:50 PM72 °FPassing clouds.3 mph50%30.09 "HgN/A
1:20 PM72 °FMild.6 mph47%30.09 "Hg3 mi
12:50 PM70 °FPassing clouds.5 mph53%30.09 "HgN/A
12:20 PM70 °FPassing clouds.5 mph57%30.12 "Hg2 mi
11:50 AM68 °FScattered clouds.6 mph64%30.12 "Hg6 mi
11:20 AM66 °FPassing clouds.5 mph94%30.12 "HgN/A
10:50 AM64 °FPassing clouds.3 mph100%30.12 "HgN/A
10:20 AM63 °FPartly sunny.2 mph94%30.12 "HgN/A
9:50 AM61 °FMostly cloudy.2 mph94%30.12 "Hg3 mi
9:20 AM59 °FDense fog.2 mph94%30.12 "Hg1 mi
8:50 AM57 °FDense fog.2 mph100%30.12 "Hg0 mi
8:20 AM55 °FDense fog.1 mph100%30.12 "Hg0 mi
7:50 AM54 °FDense fog.1 mph100%30.12 "Hg0 mi
7:20 AM52 °FDense fog.1 mph100%30.12 "Hg0 mi
6:50 AM52 °FDense fog.2 mph100%30.09 "Hg0 mi
6:20 AM52 °FDense fog.3 mph100%30.09 "Hg0 mi
5:50 AM52 °FDense fog.1 mph94%30.09 "Hg1 mi
5:20 AM52 °FDense fog.3 mph94%30.09 "Hg1 mi
4:50 AM50 °FPartly cloudy.3 mph100%30.09 "Hg1 mi
4:20 AM50 °FDense fog.3 mph100%30.09 "Hg1 mi
3:50 AM50 °FFog.2 mph100%30.09 "Hg3 mi
3:20 AM50 °FPassing clouds.2 mph100%30.09 "Hg1 mi
2:50 AM52 °FPassing clouds.No wind94%30.12 "Hg3 mi
2:20 AM52 °FPassing clouds.1 mph100%30.12 "Hg1 mi
1:50 AM54 °FPassing clouds.No wind94%30.12 "Hg6 mi
1:20 AM54 °FCool.No wind94%30.12 "Hg2 mi
Weather by CustomWeather, © 2016

See weather overviewHow to use our weather pages